Location: Newark
(63.1158°N, 8.1461°E)
Time: 23:13:01
(UTC+00:00)

Envisat - Pass Details

Date: 20 December 2019
Orbit: 764 x 766 km, 98.1° (Epoch: 24 January)

Event Time Altitude Azimuth Distance (km) Brightness Sun altitude
Rises 18:09:15 0° 197° (SSW) 3,230 6.5 -25.7°
Reaches altitude 10° 18:11:50 10° 208° (SSW) 2,307 5.8 -26.0°
Maximum altitude 18:16:17 30° 269° (W) 1,363 4.9 -26.5°
Drops below altitude 10° 18:20:45 10° 330° (NNW) 2,320 5.8 -27.0°
Sets 18:23:21 0° 341° (NNW) 3,251 6.5 -27.3°
